Weather History for KRWI - October, 2012

Change the Weather History Date:

Thursday, October 18, 2012

  Actual Average Record
Temperature  
Mean Temperature 61 °F -  
Max Temperature 79 °F 72 °F 84 °F (2007)
Min Temperature 44 °F 47 °F 31 °F (1970)
Degree Days  
Heating Degree Days 4    
Growing Degree Days 11 (Base 50)    
Moisture  
Dew Point 49 °F    
Average Humidity 89    
Maximum Humidity 100    
Minimum Humidity 50    
Precipitation  
Precipitation 0.01 in - - ()
Sea Level Pressure  
Sea Level Pressure 29.92 in    
Wind  
Wind Speed 1 mph (SE)    
Max Wind Speed 10 mph    
Max Gust Speed -    
Visibility 4 miles    
Events Fog    
Averages and records for this station are not official NWS values.
T = Trace of Precipitation, MM = Missing Value Source: NWS Daily Summary

Daily Weather History Graph

Daily Weather History Graph

Search for Another Location

Airport or City:

Trip Planner

Search our weather history database for the weather conditions in past years. The results will help you decide how hot, cold, wet, or windy it might be!

Date:

Astronomy

Oct. 18, 2012 Rise Set
Actual Time 7:21 AM EDT 6:31 PM EDT
Civil Twilight 6:55 AM EDT 6:57 PM EDT
Nautical Twilight 6:25 AM EDT 7:27 PM EDT
Astronomical Twilight 5:55 AM EDT 7:56 PM EDT
Moon 10:54 AM EDT (10/18) 9:10 PM EDT (10/18)
Length of Visible Light 12h 01m
Length of Day
11h 10m
Waxing Crescent, 14% of the Moon is Illuminated
Oct 18
Waxing Crescent
Oct 21
First Quarter
Oct 29
Full
Nov 6
Last Quarter
Nov 13
New

Hourly Weather History & Observations

Time (EDT) Temp. Dew Point Humidity Pressure Visibility Wind Dir Wind Speed Gust Speed Precip Events Conditions
12:50 AM 46.4 °F 44.6 °F 93% 29.95 in 1.5 mi Calm Calm - N/A   Clear
12:53 AM 46.9 °F 45.0 °F 93% 29.95 in 0.8 mi Calm Calm - N/A   Clear
1:21 AM 46.4 °F 44.6 °F 93% 29.95 in 2.0 mi Calm Calm - N/A   Clear
1:30 AM 46.4 °F 44.6 °F 93% 29.95 in 5.0 mi Calm Calm - N/A   Clear
1:53 AM 45.0 °F 43.0 °F 93% 29.95 in 5.0 mi Calm Calm - N/A   Clear
2:02 AM 44.6 °F 42.8 °F 93% 29.95 in 0.8 mi Calm Calm - N/A   Clear
2:16 AM 44.6 °F 44.6 °F 100% 29.94 in 2.5 mi Calm Calm - N/A   Clear
2:23 AM 44.6 °F 44.6 °F 100% 29.94 in 7.0 mi Calm Calm - N/A   Clear
2:38 AM 44.6 °F 44.6 °F 100% 29.94 in 1.5 mi Calm Calm - N/A   Clear
2:48 AM 44.6 °F 44.6 °F 100% 29.94 in 0.8 mi Calm Calm - N/A   Clear
2:53 AM 45.0 °F 43.0 °F 93% 29.93 in 0.8 mi Calm Calm - N/A   Clear
3:31 AM 44.6 °F 44.6 °F 100% 29.93 in 0.5 mi Calm Calm - N/A Fog Fog
3:42 AM 44.6 °F 42.8 °F 93% 29.93 in 0.5 mi Calm Calm - N/A Fog Fog
3:53 AM 45.0 °F 43.0 °F 93% 29.93 in 0.8 mi Calm Calm - N/A   Clear
4:01 AM 44.6 °F 44.6 °F 100% 29.93 in 1.5 mi Calm Calm - N/A   Clear
4:06 AM 46.4 °F 44.6 °F 93% 29.93 in 3.0 mi Calm Calm - N/A   Clear
4:10 AM 46.4 °F 44.6 °F 93% 29.94 in 2.5 mi Calm Calm - 0.01 in   Partly Cloudy
4:16 AM 44.6 °F 42.8 °F 93% 29.94 in 1.0 mi Calm Calm - 0.01 in   Mist
4:21 AM 44.6 °F 44.6 °F 100% 29.94 in 0.2 mi Calm Calm - 0.01 in Fog Fog
4:43 AM 44.6 °F 42.8 °F 93% 29.93 in 0.5 mi Calm Calm - 0.01 in Fog Fog
4:53 AM 45.0 °F 43.0 °F 93% 29.94 in 0.5 mi Calm Calm - 0.01 in Fog Fog
5:12 AM 44.6 °F 42.8 °F 93% 29.94 in 0.5 mi Calm Calm - N/A Fog Fog
5:25 AM 44.6 °F 42.8 °F 93% 29.94 in 2.5 mi Calm Calm - N/A   Clear
5:42 AM 44.6 °F 44.6 °F 100% 29.94 in 4.0 mi Calm Calm - N/A   Clear
5:53 AM 45.0 °F 43.0 °F 93% 29.95 in 10.0 mi Calm Calm - N/A   Clear
6:06 AM 44.6 °F 42.8 °F 93% 29.95 in 1.8 mi Calm Calm - N/A   Clear
6:23 AM 44.6 °F 44.6 °F 100% 29.94 in 3.0 mi Calm Calm - N/A   Clear
6:28 AM 44.6 °F 44.6 °F 100% 29.94 in 1.5 mi Calm Calm - N/A   Clear
6:39 AM 46.4 °F 44.6 °F 93% 29.95 in 3.0 mi Calm Calm - N/A   Clear
6:53 AM 46.0 °F 44.1 °F 93% 29.95 in 4.0 mi Calm Calm - N/A   Clear
7:03 AM 44.6 °F 44.6 °F 100% 29.95 in 2.5 mi Calm Calm - N/A   Clear
7:12 AM 46.4 °F 44.6 °F 93% 29.95 in 4.0 mi Calm Calm - N/A   Clear
7:16 AM 46.4 °F 44.6 °F 93% 29.95 in 1.2 mi Calm Calm - N/A   Clear
7:24 AM 44.6 °F 44.6 °F 100% 29.95 in 0.5 mi Calm Calm - N/A Fog Fog
7:49 AM 46.4 °F 44.6 °F 93% 29.95 in 2.0 mi Calm Calm - N/A   Partly Cloudy
7:50 AM 46.4 °F 44.6 °F 93% 29.95 in 3.0 mi Calm Calm - N/A   Partly Cloudy
7:53 AM 46.0 °F 45.0 °F 96% 29.95 in 4.0 mi Calm Calm - N/A   Partly Cloudy
8:53 AM 54.0 °F 52.0 °F 93% 29.94 in 10.0 mi Calm Calm - N/A   Clear
9:53 AM 62.1 °F 55.0 °F 78% 29.95 in 10.0 mi Calm Calm - N/A   Clear
10:53 AM 66.9 °F 57.0 °F 70% 29.95 in 10.0 mi SSE 3.5 mph - N/A   Mostly Cloudy
11:53 AM 72.0 °F 57.9 °F 61% 29.91 in 10.0 mi ESE 6.9 mph - N/A   Mostly Cloudy
12:53 PM 75.9 °F 57.9 °F 54% 29.89 in 10.0 mi SE 4.6 mph - N/A   Mostly Cloudy
1:53 PM 78.1 °F 57.9 °F 50% 29.86 in 10.0 mi SE 9.2 mph - N/A   Mostly Cloudy
2:53 PM 78.1 °F 59.0 °F 52% 29.83 in 10.0 mi SSE 10.4 mph - N/A   Scattered Clouds
3:53 PM 75.9 °F 60.1 °F 58% 29.83 in 10.0 mi SE 4.6 mph - N/A   Overcast
4:53 PM 73.0 °F 63.0 °F 71% 29.83 in 10.0 mi ESE 3.5 mph - N/A   Overcast
5:53 PM 71.1 °F 64.0 °F 78% 29.82 in 10.0 mi East 4.6 mph - 0.00 in   Overcast
6:53 PM 70.0 °F 64.0 °F 81% 29.82 in 10.0 mi Calm Calm - N/A   Overcast
7:53 PM 70.0 °F 64.0 °F 81% 29.83 in 10.0 mi SSE 3.5 mph - N/A   Overcast
8:53 PM 68.0 °F 63.0 °F 84% 29.83 in 10.0 mi SSE 3.5 mph - N/A   Clear
10:53 PM 66.0 °F 63.0 °F 90% 29.82 in 10.0 mi SSE 3.5 mph - N/A   Clear
11:53 PM 63.0 °F 62.1 °F 97% 29.81 in 5.0 mi SSE 3.5 mph - N/A   Clear